{"data":{"norad_id":66301,"epoch":"2026-09-20T22:43:32.067552Z","epoch_age_seconds":93041,"freshness":"FRESH","line1":"1 66301U 25248J   26263.94689893  .00001044  00000+0  79664-4 0  9996","line2":"2 66301  45.4020 348.8872 0005071 209.5688 150.4908 15.09497603 49974","mean_motion":15.09497603,"eccentricity":0.0005071,"inclination_deg":45.402,"raan_deg":348.8872,"arg_perigee_deg":209.5688,"mean_anomaly_deg":150.4908,"bstar":7.9664e-5,"rev_number":4997,"period_min":95.395977915972,"perigee_km":534.22705119079,"apogee_km":541.24112764968,"semimajor_km":6915.8710894202,"source":"CELESTRAK","updated_at":"2026-09-21T09:00:15.899538Z"}}